Time,TemperatureF,DewpointF,PressureIn,WindDirection,WindDirectionDegrees,WindSpeedMPH,WindSpeedGustMPH,Humidity,HourlyPrecipIn,Conditions,Clouds,dailyrainin,SolarRadiationWatts/m^2,SoftwareType,DateUTC
2013-02-14 00:22:00,32.0,32.0,-100.00,WSW,256,0.0,1.0,100,0.00,,,0.00,1.000000,,2013-02-14 05:22:00,
2013-02-14 00:32:00,32.0,32.0,-100.00,WSW,256,0.0,1.0,100,0.00,,,0.00,1.000000,,2013-02-14 05:32:00,
2013-02-14 00:42:00,32.0,32.0,-100.00,WSW,256,0.0,1.0,100,0.00,,,0.00,1.000000,,2013-02-14 05:42:00,
2013-02-14 00:52:00,32.0,32.0,-100.00,WSW,256,0.0,1.0,100,0.00,,,0.00,1.000000,,2013-02-14 05:52:00,
2013-02-14 01:11:00,31.0,31.0,-100.00,WSW,247,2.0,5.0,100,0.00,,,0.00,1.000000,,2013-02-14 06:11:00,
2013-02-14 01:22:00,31.0,31.0,-100.00,WSW,247,2.0,5.0,100,0.00,,,0.00,1.000000,,2013-02-14 06:22:00,
2013-02-14 01:32:00,31.0,31.0,-100.00,WSW,247,2.0,5.0,100,0.00,,,0.00,1.000000,,2013-02-14 06:32:00,
2013-02-14 01:42:00,31.0,31.0,-100.00,WSW,247,2.0,5.0,100,0.00,,,0.00,1.000000,,2013-02-14 06:42:00,
2013-02-14 01:51:00,31.0,31.0,-100.00,WSW,247,2.0,5.0,100,0.00,,,0.00,1.000000,,2013-02-14 06:51:00,
2013-02-14 02:21:00,31.0,31.0,-100.00,WSW,246,1.0,4.0,100,0.00,,,0.00,1.000000,,2013-02-14 07:21:00,
2013-02-14 02:32:00,31.0,31.0,-100.00,WSW,246,1.0,4.0,100,0.00,,,0.00,1.000000,,2013-02-14 07:32:00,
2013-02-14 02:42:00,31.0,31.0,-100.00,WSW,246,1.0,4.0,100,0.00,,,0.00,1.000000,,2013-02-14 07:42:00,
2013-02-14 02:52:00,31.0,31.0,-100.00,WSW,246,1.0,4.0,100,0.00,,,0.00,1.000000,,2013-02-14 07:52:00,
2013-02-14 03:22:00,31.0,31.0,-100.00,WNW,298,0.0,4.0,100,0.00,,,0.00,1.000000,,2013-02-14 08:22:00,
2013-02-14 03:32:00,31.0,31.0,-100.00,WNW,298,0.0,4.0,100,0.00,,,0.00,1.000000,,2013-02-14 08:32:00,
2013-02-14 03:43:00,31.0,31.0,-100.00,WNW,298,0.0,4.0,100,0.00,,,0.00,1.000000,,2013-02-14 08:43:00,
2013-02-14 03:52:00,31.0,31.0,-100.00,WNW,298,0.0,4.0,100,0.00,,,0.00,1.000000,,2013-02-14 08:52:00,
2013-02-14 04:21:00,31.0,31.0,-100.00,WSW,243,2.0,4.0,100,0.00,,,0.00,1.000000,,2013-02-14 09:21:00,
2013-02-14 04:32:00,31.0,31.0,-100.00,WSW,243,2.0,4.0,100,0.00,,,0.00,1.000000,,2013-02-14 09:32:00,
2013-02-14 04:42:00,31.0,31.0,-100.00,WSW,243,2.0,4.0,100,0.00,,,0.00,1.000000,,2013-02-14 09:42:00,
2013-02-14 04:52:00,31.0,31.0,-100.00,WSW,243,2.0,4.0,100,0.00,,,0.00,1.000000,,2013-02-14 09:52:00,
2013-02-14 05:21:00,31.0,31.0,-100.00,WNW,285,1.0,5.0,100,0.00,,,0.00,1.000000,,2013-02-14 10:21:00,
2013-02-14 05:32:00,31.0,31.0,-100.00,WNW,285,1.0,5.0,100,0.00,,,0.00,1.000000,,2013-02-14 10:32:00,
2013-02-14 05:42:00,31.0,31.0,-100.00,WNW,285,1.0,5.0,100,0.00,,,0.00,1.000000,,2013-02-14 10:42:00,
2013-02-14 05:52:00,31.0,31.0,-100.00,WNW,285,1.0,5.0,100,0.00,,,0.00,1.000000,,2013-02-14 10:52:00,
2013-02-14 06:22:00,30.0,30.0,-100.00,NW,308,2.0,13.0,100,0.00,,,0.00,1.000000,,2013-02-14 11:22:00,
2013-02-14 06:32:00,30.0,30.0,-100.00,NW,308,2.0,13.0,100,0.00,,,0.00,1.000000,,2013-02-14 11:32:00,
2013-02-14 06:42:00,30.0,30.0,-100.00,NW,308,2.0,13.0,100,0.00,,,0.00,1.000000,,2013-02-14 11:42:00,
2013-02-14 06:52:00,30.0,30.0,-100.00,NW,308,2.0,13.0,100,0.00,,,0.00,1.000000,,2013-02-14 11:52:00,
2013-02-14 07:22:00,27.0,27.0,-100.00,West,262,0.0,7.0,100,0.00,,,0.00,1.000000,,2013-02-14 12:22:00,
2013-02-14 07:32:00,27.0,27.0,-100.00,West,262,0.0,7.0,100,0.00,,,0.00,1.000000,,2013-02-14 12:32:00,
2013-02-14 07:42:00,27.0,27.0,-100.00,West,262,0.0,7.0,100,0.00,,,0.00,1.000000,,2013-02-14 12:42:00,
2013-02-14 07:53:00,27.0,27.0,-100.00,West,262,0.0,7.0,100,0.00,,,0.00,1.000000,,2013-02-14 12:53:00,
2013-02-14 08:21:00,27.0,27.0,-100.00,SSW,206,2.0,5.0,100,0.00,,,0.00,9.000000,,2013-02-14 13:21:00,
2013-02-14 08:32:00,27.0,27.0,-100.00,SSW,206,2.0,5.0,100,0.00,,,0.00,9.000000,,2013-02-14 13:32:00,
2013-02-14 08:42:00,27.0,27.0,-100.00,SSW,206,2.0,5.0,100,0.00,,,0.00,9.000000,,2013-02-14 13:42:00,
2013-02-14 08:51:00,27.0,27.0,-100.00,SSW,206,2.0,5.0,100,0.00,,,0.00,9.000000,,2013-02-14 13:51:00,
2013-02-14 09:21:00,29.0,29.0,-100.00,WSW,242,3.0,7.0,100,0.00,,,0.00,19.000000,,2013-02-14 14:21:00,
2013-02-14 09:32:00,29.0,29.0,-100.00,WSW,242,3.0,7.0,100,0.00,,,0.00,19.000000,,2013-02-14 14:32:00,
2013-02-14 09:42:00,29.0,29.0,-100.00,WSW,242,3.0,7.0,100,0.00,,,0.00,19.000000,,2013-02-14 14:42:00,
2013-02-14 09:52:00,29.0,29.0,-100.00,WSW,242,3.0,7.0,100,0.00,,,0.00,19.000000,,2013-02-14 14:52:00,
2013-02-14 10:22:00,30.0,29.0,-100.00,West,259,3.0,9.0,96,0.00,,,0.00,33.000000,,2013-02-14 15:22:00,
2013-02-14 10:32:00,30.0,29.0,-100.00,West,259,3.0,9.0,96,0.00,,,0.00,33.000000,,2013-02-14 15:32:00,
2013-02-14 10:42:00,30.0,29.0,-100.00,West,259,3.0,9.0,96,0.00,,,0.00,33.000000,,2013-02-14 15:42:00,
2013-02-14 10:52:00,30.0,29.0,-100.00,West,259,3.0,9.0,96,0.00,,,0.00,33.000000,,2013-02-14 15:52:00,
2013-02-14 11:22:00,34.0,29.0,-100.00,SW,235,3.0,9.0,83,0.00,,,0.00,65.000000,,2013-02-14 16:22:00,
2013-02-14 11:32:00,34.0,29.0,-100.00,SW,235,3.0,9.0,83,0.00,,,0.00,65.000000,,2013-02-14 16:32:00,
2013-02-14 11:42:00,34.0,29.0,-100.00,SW,235,3.0,9.0,83,0.00,,,0.00,65.000000,,2013-02-14 16:42:00,
2013-02-14 11:51:00,34.0,29.0,-100.00,SW,235,3.0,9.0,83,0.00,,,0.00,65.000000,,2013-02-14 16:51:00,
2013-02-14 12:21:00,38.0,29.0,-100.00,North,349,3.0,10.0,70,0.11,,,0.11,308.000000,,2013-02-14 17:21:00,
2013-02-14 12:32:00,38.0,29.0,-100.00,North,349,3.0,10.0,70,0.11,,,0.11,308.000000,,2013-02-14 17:32:00,
2013-02-14 12:42:00,38.0,29.0,-100.00,North,349,3.0,10.0,70,0.11,,,0.11,308.000000,,2013-02-14 17:42:00,
2013-02-14 12:52:00,38.0,29.0,-100.00,North,349,3.0,10.0,70,0.11,,,0.11,308.000000,,2013-02-14 17:52:00,
2013-02-14 13:23:00,39.0,30.0,-100.00,NE,55,3.0,6.0,70,0.00,,,0.11,564.000000,,2013-02-14 18:23:00,
2013-02-14 13:32:00,39.0,30.0,-100.00,NE,55,3.0,6.0,70,0.00,,,0.11,564.000000,,2013-02-14 18:32:00,
2013-02-14 13:42:00,39.0,30.0,-100.00,NE,55,3.0,6.0,70,0.00,,,0.11,564.000000,,2013-02-14 18:42:00,
2013-02-14 13:52:00,39.0,30.0,-100.00,NE,55,3.0,6.0,70,0.00,,,0.11,564.000000,,2013-02-14 18:52:00,
2013-02-14 14:22:00,42.0,30.0,-100.00,NW,308,2.0,6.0,62,0.00,,,0.11,532.000000,,2013-02-14 19:22:00,
2013-02-14 14:32:00,42.0,30.0,-100.00,NW,308,2.0,6.0,62,0.00,,,0.11,532.000000,,2013-02-14 19:32:00,
2013-02-14 14:42:00,42.0,30.0,-100.00,NW,308,2.0,6.0,62,0.00,,,0.11,532.000000,,2013-02-14 19:42:00,
2013-02-14 14:52:00,42.0,30.0,-100.00,NW,308,2.0,6.0,62,0.00,,,0.11,532.000000,,2013-02-14 19:52:00,
2013-02-14 15:21:00,41.0,29.0,-100.00,WSW,252,3.0,9.0,61,0.00,,,0.11,438.000000,,2013-02-14 20:21:00,
2013-02-14 15:32:00,41.0,29.0,-100.00,WSW,252,3.0,9.0,61,0.00,,,0.11,438.000000,,2013-02-14 20:32:00,
2013-02-14 15:42:00,41.0,29.0,-100.00,WSW,252,3.0,9.0,61,0.00,,,0.11,438.000000,,2013-02-14 20:42:00,
2013-02-14 15:52:00,41.0,29.0,-100.00,WSW,252,3.0,9.0,61,0.00,,,0.11,438.000000,,2013-02-14 20:52:00,
2013-02-14 16:22:00,42.0,30.0,-100.00,NNW,328,2.0,8.0,61,0.00,,,0.11,327.000000,,2013-02-14 21:22:00,
2013-02-14 16:32:00,42.0,30.0,-100.00,NNW,328,2.0,8.0,61,0.00,,,0.11,327.000000,,2013-02-14 21:32:00,
2013-02-14 16:42:00,42.0,30.0,-100.00,NNW,328,2.0,8.0,61,0.00,,,0.11,327.000000,,2013-02-14 21:42:00,
2013-02-14 16:51:00,42.0,30.0,-100.00,NNW,328,2.0,8.0,61,0.00,,,0.11,327.000000,,2013-02-14 21:51:00,
2013-02-14 17:21:00,40.0,29.0,-100.00,SSW,203,2.0,8.0,65,0.00,,,0.11,142.000000,,2013-02-14 22:21:00,
2013-02-14 17:32:00,40.0,29.0,-100.00,SSW,203,2.0,8.0,65,0.00,,,0.11,142.000000,,2013-02-14 22:32:00,
2013-02-14 17:42:00,40.0,29.0,-100.00,SSW,203,2.0,8.0,65,0.00,,,0.11,142.000000,,2013-02-14 22:42:00,
2013-02-14 17:51:00,40.0,29.0,-100.00,SSW,203,2.0,8.0,65,0.00,,,0.11,142.000000,,2013-02-14 22:51:00,
2013-02-14 18:21:00,34.0,28.0,-100.00,SSW,195,0.0,6.0,79,0.00,,,0.11,15.000000,,2013-02-14 23:21:00,
2013-02-14 18:32:00,34.0,28.0,-100.00,SSW,195,0.0,6.0,79,0.00,,,0.11,15.000000,,2013-02-14 23:32:00,
2013-02-14 18:42:00,34.0,28.0,-100.00,SSW,195,0.0,6.0,79,0.00,,,0.11,15.000000,,2013-02-14 23:42:00,
2013-02-14 18:52:00,34.0,28.0,-100.00,SSW,195,0.0,6.0,79,0.00,,,0.11,15.000000,,2013-02-14 23:52:00,
2013-02-14 19:22:00,36.0,29.0,-100.00,ESE,105,2.0,5.0,75,0.00,,,0.11,1.000000,,2013-02-15 00:22:00,
2013-02-14 19:32:00,36.0,29.0,-100.00,ESE,105,2.0,5.0,75,0.00,,,0.11,1.000000,,2013-02-15 00:32:00,
2013-02-14 19:42:00,36.0,29.0,-100.00,ESE,105,2.0,5.0,75,0.00,,,0.11,1.000000,,2013-02-15 00:42:00,
2013-02-14 19:52:00,36.0,29.0,-100.00,ESE,105,2.0,5.0,75,0.00,,,0.11,1.000000,,2013-02-15 00:52:00,
2013-02-14 20:21:00,36.0,29.0,-100.00,NNW,348,2.0,8.0,75,0.00,,,0.11,1.000000,,2013-02-15 01:21:00,
2013-02-14 20:32:00,36.0,29.0,-100.00,NNW,348,2.0,8.0,75,0.00,,,0.11,1.000000,,2013-02-15 01:32:00,
2013-02-14 20:42:00,36.0,29.0,-100.00,NNW,348,2.0,8.0,75,0.00,,,0.11,1.000000,,2013-02-15 01:42:00,
2013-02-14 20:51:00,36.0,29.0,-100.00,NNW,348,2.0,8.0,75,0.00,,,0.11,1.000000,,2013-02-15 01:51:00,
2013-02-14 21:21:00,36.0,29.0,-100.00,ENE,69,4.0,9.0,76,0.00,,,0.11,1.000000,,2013-02-15 02:21:00,
2013-02-14 21:32:00,36.0,29.0,-100.00,ENE,69,4.0,9.0,76,0.00,,,0.11,1.000000,,2013-02-15 02:32:00,
2013-02-14 21:42:00,36.0,29.0,-100.00,ENE,69,4.0,9.0,76,0.00,,,0.11,1.000000,,2013-02-15 02:42:00,
2013-02-14 21:52:00,36.0,29.0,-100.00,ENE,69,4.0,9.0,76,0.00,,,0.11,1.000000,,2013-02-15 02:52:00,
2013-02-14 22:22:00,34.0,28.0,-100.00,ESE,109,3.0,6.0,79,0.00,,,0.11,1.000000,,2013-02-15 03:22:00,
2013-02-14 22:32:00,34.0,28.0,-100.00,ESE,109,3.0,6.0,79,0.00,,,0.11,1.000000,,2013-02-15 03:32:00,
2013-02-14 22:42:00,34.0,28.0,-100.00,ESE,109,3.0,6.0,79,0.00,,,0.11,1.000000,,2013-02-15 03:42:00,
2013-02-14 22:52:00,34.0,28.0,-100.00,ESE,109,3.0,6.0,79,0.00,,,0.11,1.000000,,2013-02-15 03:52:00,
2013-02-14 23:21:00,35.0,29.0,-100.00,ESE,106,3.0,8.0,78,0.00,,,0.11,1.000000,,2013-02-15 04:21:00,
2013-02-14 23:32:00,35.0,29.0,-100.00,ESE,106,3.0,8.0,78,0.00,,,0.11,1.000000,,2013-02-15 04:32:00,
2013-02-14 23:42:00,35.0,29.0,-100.00,ESE,106,3.0,8.0,78,0.00,,,0.11,1.000000,,2013-02-15 04:42:00,
2013-02-14 23:52:00,35.0,29.0,-100.00,ESE,106,3.0,8.0,78,0.00,,,0.11,1.000000,,2013-02-15 04:52:00,